FW3938 Weather Reports


time (UTC)temp
C
wind
direction
speed
KPH
gust
KPH
rain 1hr
cm
rain 24hr
cm
rain mn
cm
humidity
%
barometer
mb
20260906093041 20 360 0.0 0.0 0.00 0.03 0.00 95 990.5
20260906091529 20 360 0.0 0.0 0.00 0.03 0.00 95 990.5
20260906090031 20 144 0.0 0.0 0.00 0.03 0.00 95 990.3
20260906084526 20 144 0.0 0.0 0.00 0.03 0.00 95 990.4
20260906083041 20 360 0.0 0.0 0.00 0.03 0.00 95 990.3
20260906081532 20 144 0.0 0.0 0.00 0.03 0.00 95 990.0
20260906080032 20 360 0.0 0.0 0.00 0.03 0.00 95 989.8
20260906074528 20 360 0.0 0.0 0.00 0.03 0.00 95 989.9
20260906073026 20 360 0.0 0.0 0.00 0.03 0.00 95 989.8
20260906071523 21 360 0.0 0.0 0.00 0.03 0.00 95 990.0
20260906070022 21 360 0.0 0.0 0.00 0.03 0.00 95 989.8
20260906064520 21 144 0.0 0.0 0.00 0.03 0.00 95 989.9
20260906063019 21 360 0.0 0.0 0.00 0.03 0.00 94 990.1
20260906061517 21 360 0.0 0.0 0.00 0.03 0.00 95 990.1
20260906060015 21 360 0.0 0.0 0.00 0.03 0.00 94 990.2
20260906054514 21 360 0.0 0.0 0.00 0.03 0.00 95 990.5
20260906053012 21 360 0.0 0.0 0.00 0.03 0.00 94 990.6
20260906051511 21 360 0.0 0.0 0.00 0.03 0.00 94 990.7
20260906050011 21 360 0.0 0.0 0.00 0.03 0.00 95 990.7
20260906044509 21 360 0.0 0.0 0.00 0.03 0.00 94 990.8
20260906043006 21 360 0.0 0.0 0.00 0.03 0.00 94 991.1
20260906041504 21 360 0.0 0.0 0.00 0.03 0.00 94 991.1
20260906040005 21 360 0.0 0.0 0.00 0.03 0.03 94 991.2
20260906034501 21 360 0.0 0.0 0.00 0.03 0.03 94 991.1
20260906033101 21 360 0.0 0.0 0.00 0.03 0.03 94 991.2
20260906031601 21 360 0.0 0.0 0.00 0.03 0.03 94 991.2
20260906024601 22 360 0.0 0.0 0.00 0.03 0.03 94 991.0
20260906023058 22 360 0.0 0.0 0.00 0.03 0.03 94 990.9
20260906021555 22 360 0.0 0.0 0.00 0.03 0.03 94 990.9
20260906020053 22 360 0.0 0.0 0.00 0.03 0.03 93 990.9
20260906014627 22 360 0.0 0.0 0.00 0.03 0.03 94 991.0
20260906013052 23 141 0.0 0.0 0.00 0.03 0.03 93 991.1
20260906011547 23 152 0.0 3.2 0.00 0.03 0.03 94 990.8
20260906010051 23 142 1.6 4.8 0.00 0.03 0.03 94 990.9
20260906004549 23 132 0.0 0.0 0.00 0.03 0.03 94 990.8
20260906003047 23 131 0.0 0.0 0.00 0.03 0.03 93 990.6
20260906001545 23 131 0.0 0.0 0.00 0.03 0.03 93 990.4
20260906000045 24 128 0.0 0.0 0.00 0.03 0.03 93 990.1
20260905234545 24 131 0.0 0.0 0.00 0.03 0.03 93 989.8
20260905233047 24 136 0.0 0.0 0.00 0.03 0.03 93 989.6
20260905231544 25 137 0.0 0.0 0.00 0.03 0.03 92 989.5
20260905230043 25 130 0.0 0.0 0.00 0.03 0.03 92 989.7
20260905224543 25 130 0.0 0.0 0.00 0.03 0.03 92 989.8
20260905223043 25 143 0.0 8.0 0.00 0.03 0.03 93 989.4
20260905221604 25 146 0.0 4.8 0.00 0.03 0.03 94 989.5
20260905220041 25 146 0.0 0.0 0.00 0.03 0.03 95 989.6
20260905214540 25 144 0.0 0.0 0.00 0.03 0.03 95 989.7
20260905213056 25 144 0.0 0.0 0.00 0.03 0.03 95 990.0
20260905211544 24 144 0.0 0.0 0.00 0.03 0.03 95 990.3
20260905210049 24 144 0.0 0.0 0.00 0.03 0.03 94 990.4
20260905204545 23 144 0.0 0.0 0.00 0.03 0.03 94 990.4
20260905203042 23 144 0.0 0.0 0.00 0.03 0.03 93 989.9
20260905201541 23 336 0.0 0.0 0.00 0.03 0.03 93 989.8
20260905200041 23 335 0.0 0.0 0.03 0.03 0.03 91 990.0
20260905194536 24 331 0.0 0.0 0.03 0.03 0.03 87 989.9
20260905193036 26 284 0.0 3.2 0.03 0.03 0.03 79 989.9
20260905191537 31 121 3.2 20.9 0.03 0.03 0.03 66 990.1
20260905190035 35 355 1.6 16.1 0.00 0.00 0.00 53 990.6
20260905184541 36 332 0.0 6.4 0.00 0.00 0.00 50 989.8
20260905183033 35 12 0.0 4.8 0.00 0.00 0.00 55 989.6
20260905181531 35 292 0.0 1.6 0.00 0.00 0.00 59 989.8
20260905180029 35 317 0.0 0.0 0.00 0.00 0.00 57 990.2
20260905174526 35 301 0.0 0.0 0.00 0.00 0.00 53 990.8
20260905173024 37 328 0.0 0.0 0.00 0.00 0.00 56 991.1
20260905171522 37 323 0.0 0.0 0.00 0.00 0.00 48 991.3
20260905170021 38 296 0.0 3.2 0.00 0.00 0.00 49 991.4
20260905164520 38 42 0.0 4.8 0.00 0.00 0.00 53 991.7
20260905163018 38 332 0.0 0.0 0.00 0.00 0.00 52 991.9
20260905161514 38 9 0.0 0.0 0.00 0.00 0.00 54 992.0
20260905160011 37 355 0.0 0.0 0.00 0.00 0.00 54 992.1
20260905154509 37 17 0.0 0.0 0.00 0.00 0.00 54 992.2
20260905153005 36 27 0.0 3.2 0.00 0.00 0.00 59 992.2
20260905151502 36 333 0.0 3.2 0.00 0.00 0.00 61 992.3
20260905150057 35 316 0.0 6.4 0.00 0.00 0.00 64 992.4
20260905144553 35 95 0.0 3.2 0.00 0.00 0.00 65 992.4
20260905143051 33 335 0.0 0.0 0.00 0.00 0.00 68 992.4
20260905141544 33 22 0.0 1.6 0.00 0.00 0.00 69 992.4
20260905140040 32 34 0.0 0.0 0.00 0.00 0.00 72 992.5
20260905134539 31 9 0.0 1.6 0.00 0.00 0.00 73 992.5
20260905133032 30 84 0.0 3.2 0.00 0.00 0.00 77 992.6
20260905131527 29 103 0.0 3.2 0.00 0.00 0.00 80 992.7
20260905130023 27 140 0.0 6.4 0.00 0.00 0.00 84 992.9
20260905124522 25 133 0.0 3.2 0.00 0.00 0.00 90 992.9
20260905123020 23 125 0.0 3.2 0.00 0.00 0.00 95 993.0
20260905121520 23 360 0.0 1.6 0.00 0.00 0.00 95 992.9
20260905120014 22 360 0.0 0.0 0.00 0.00 0.00 94 992.8
20260905114515 22 360 0.0 0.0 0.00 0.00 0.00 94 992.7
20260905113014 22 360 0.0 0.0 0.00 0.00 0.00 94 992.5
20260905111513 22 360 0.0 0.0 0.00 0.00 0.00 93 992.3
20260905110012 22 360 0.0 0.0 0.00 0.00 0.00 93 991.9
20260905104511 22 360 0.0 0.0 0.00 0.00 0.00 93 991.6
20260905103011 22 360 0.0 0.0 0.00 0.00 0.00 93 991.4
20260905101509 22 360 0.0 0.0 0.00 0.00 0.00 93 991.5
20260905100008 22 360 0.0 0.0 0.00 0.00 0.00 93 991.5
20260905094507 22 360 0.0 0.0 0.00 0.00 0.00 93 991.5